Change the Weather History Date:

Wednesday, September 18, 2013

  Actual Average Record
Temperature  
Mean Temperature 78 °F -  
Max Temperature 91 °F 86 °F 101 °F (1983)
Min Temperature 66 °F 56 °F 39 °F (1965)
Cooling Degree Days 14    
Growing Degree Days 28 (Base 50)    
Moisture  
Dew Point 61 °F    
Average Humidity 58    
Maximum Humidity 83    
Minimum Humidity 36    
Precipitation  
Precipitation 0.00 in - - ()
Sea Level Pressure  
Sea Level Pressure 29.89 in    
Wind  
Wind Speed 20 mph (SSW)    
Max Wind Speed 30 mph    
Max Gust Speed 38 mph    
Visibility 10 miles    
Events      
Averages and records for this station are not official NWS values.
T = Trace of Precipitation, MM = Missing Value Source: NWS Daily Summary

Daily Weather History Graph

Daily Weather History Graph

Search for Another Location

Airport or City:

Trip Planner

Search our weather history database for the weather conditions in past years. The results will help you decide how hot, cold, wet, or windy it might be!

Date:

Astronomy

Sep. 18, 2013 Rise Set
Actual Time 7:28 AM CDT 7:46 PM CDT
Civil Twilight 7:02 AM CDT 8:12 PM CDT
Nautical Twilight 6:32 AM CDT 8:42 PM CDT
Astronomical Twilight 6:01 AM CDT 9:13 PM CDT
Moon 7:11 PM CDT (9/18) 6:33 AM CDT (9/18)
Length of Visible Light 13h 09m
Length of Day
12h 17m
Waxing Gibbous, 99% of the Moon is Illuminated
Sep 18
Waxing Gibbous
Sep 19
Full
Sep 26
Last Quarter
Oct 4
New
Oct 11
First Quarter

Hourly Weather History & Observations

Time (CDT) Temp. Heat Index Dew Point Humidity Pressure Visibility Wind Dir Wind Speed Gust Speed Precip Events Conditions
12:15 AM 69.8 °F - 60.8 °F 73% 29.97 in 10.0 mi South 18.4 mph - N/A   Clear
12:35 AM 69.8 °F - 60.8 °F 73% 29.97 in 10.0 mi South 18.4 mph - N/A   Clear
12:55 AM 71.6 °F - 60.8 °F 69% 29.97 in 10.0 mi South 17.3 mph - N/A   Clear
1:15 AM 69.8 °F - 60.8 °F 73% 29.97 in 10.0 mi South 16.1 mph - N/A   Clear
1:35 AM 69.8 °F - 60.8 °F 73% 29.96 in 10.0 mi South 18.4 mph 23.0 mph N/A   Clear
1:55 AM 69.8 °F - 60.8 °F 73% 29.96 in 10.0 mi South 16.1 mph 20.7 mph N/A   Clear
2:15 AM 69.8 °F - 60.8 °F 73% 29.96 in 10.0 mi South 17.3 mph - N/A   Clear
2:35 AM 69.8 °F - 60.8 °F 73% 29.95 in 10.0 mi South 16.1 mph 23.0 mph N/A   Clear
2:55 AM 69.8 °F - 60.8 °F 73% 29.95 in 10.0 mi South 17.3 mph - N/A   Clear
3:15 AM 69.8 °F - 60.8 °F 73% 29.94 in 10.0 mi SSW 19.6 mph - N/A   Clear
3:35 AM 69.8 °F - 60.8 °F 73% 29.94 in 10.0 mi SSW 19.6 mph 25.3 mph N/A   Clear
3:55 AM 69.8 °F - 60.8 °F 73% 29.93 in 10.0 mi SSW 18.4 mph - N/A   Clear
4:15 AM 69.8 °F - 60.8 °F 73% 29.93 in 10.0 mi SSW 19.6 mph 24.2 mph N/A   Clear
4:35 AM 69.8 °F - 60.8 °F 73% 29.93 in 10.0 mi SSW 16.1 mph - N/A   Clear
4:55 AM 69.8 °F - 60.8 °F 73% 29.92 in 10.0 mi SSW 16.1 mph - N/A   Clear
5:15 AM 68.0 °F - 60.8 °F 78% 29.92 in 10.0 mi SSW 16.1 mph - N/A   Clear
5:35 AM 68.0 °F - 60.8 °F 78% 29.92 in 10.0 mi SSW 16.1 mph - N/A   Clear
5:55 AM 66.2 °F - 60.8 °F 83% 29.92 in 10.0 mi SSW 16.1 mph - N/A   Clear
6:15 AM 66.2 °F - 60.8 °F 83% 29.92 in 10.0 mi SSW 17.3 mph 21.9 mph N/A   Clear
6:35 AM 68.0 °F - 60.8 °F 78% 29.91 in 10.0 mi SSW 16.1 mph - N/A   Clear
6:55 AM 68.0 °F - 60.8 °F 78% 29.91 in 10.0 mi SSW 18.4 mph 21.9 mph N/A   Clear
7:15 AM 68.0 °F - 60.8 °F 78% 29.92 in 10.0 mi SSW 16.1 mph - N/A   Clear
7:35 AM 68.0 °F - 60.8 °F 78% 29.92 in 10.0 mi SSW 17.3 mph - N/A   Clear
7:55 AM 68.0 °F - 60.8 °F 78% 29.92 in 10.0 mi SSW 17.3 mph - N/A   Clear
8:15 AM 68.0 °F - 60.8 °F 78% 29.92 in 10.0 mi SSW 18.4 mph - N/A   Clear
8:35 AM 69.8 °F - 62.6 °F 78% 29.92 in 10.0 mi SSW 20.7 mph 26.5 mph N/A   Clear
8:55 AM 71.6 °F - 62.6 °F 73% 29.92 in 10.0 mi SSW 19.6 mph 26.5 mph N/A   Clear
9:15 AM 73.4 °F - 62.6 °F 69% 29.93 in 10.0 mi SSW 19.6 mph 28.8 mph N/A   Clear
9:35 AM 73.4 °F - 64.4 °F 73% 29.93 in 10.0 mi SSW 26.5 mph 34.5 mph N/A   Clear
9:55 AM 75.2 °F - 62.6 °F 65% 29.93 in 10.0 mi SW 28.8 mph 34.5 mph N/A   Clear
10:15 AM 77.0 °F - 64.4 °F 65% 29.93 in 10.0 mi SW 25.3 mph 33.4 mph N/A   Clear
10:35 AM 78.8 °F - 62.6 °F 57% 29.92 in 10.0 mi SW 27.6 mph 36.8 mph N/A   Clear
10:55 AM 78.8 °F - 62.6 °F 57% 29.92 in 10.0 mi SW 28.8 mph 33.4 mph N/A   Clear
11:15 AM 80.6 °F 81.8 °F 62.6 °F 54% 29.92 in 10.0 mi SSW 26.5 mph 32.2 mph N/A   Clear
11:35 AM 82.4 °F 83.4 °F 62.6 °F 51% 29.91 in 10.0 mi SSW 26.5 mph 32.2 mph N/A   Clear
11:55 AM 84.2 °F 85.0 °F 62.6 °F 48% 29.90 in 10.0 mi SSW 26.5 mph 33.4 mph N/A   Clear
12:15 PM 84.2 °F 85.0 °F 62.6 °F 48% 29.90 in 10.0 mi SSW 26.5 mph 33.4 mph N/A   Clear
12:35 PM 86.0 °F 86.6 °F 62.6 °F 45% 29.89 in 10.0 mi SSW 24.2 mph 33.4 mph N/A   Clear
12:55 PM 87.8 °F 88.5 °F 62.6 °F 43% 29.88 in 10.0 mi SSW 26.5 mph 34.5 mph N/A   Clear
1:15 PM 87.8 °F 89.4 °F 64.4 °F 46% 29.88 in 10.0 mi SSW 27.6 mph 34.5 mph N/A   Clear
1:35 PM 87.8 °F 89.4 °F 64.4 °F 46% 29.88 in 10.0 mi SSW 24.2 mph 32.2 mph N/A   Clear
1:55 PM 89.6 °F 90.1 °F 62.6 °F 40% 29.87 in 10.0 mi SSW 25.3 mph 35.7 mph N/A   Clear
2:15 PM 89.6 °F 91.1 °F 64.4 °F 43% 29.86 in 10.0 mi SSW 26.5 mph 33.4 mph N/A   Clear
2:35 PM 89.6 °F 91.1 °F 64.4 °F 43% 29.85 in 10.0 mi SSW 28.8 mph 34.5 mph N/A   Clear
2:55 PM 89.6 °F 91.1 °F 64.4 °F 43% 29.85 in 10.0 mi SSW 27.6 mph 33.4 mph N/A   Clear
3:15 PM 91.4 °F 92.1 °F 62.6 °F 38% 29.84 in 10.0 mi South 29.9 mph 38.0 mph N/A   Clear
3:35 PM 91.4 °F 93.2 °F 64.4 °F 41% 29.84 in 10.0 mi SSW 27.6 mph 34.5 mph N/A   Clear
3:55 PM 91.4 °F 92.1 °F 62.6 °F 38% 29.84 in 10.0 mi SSW 28.8 mph 35.7 mph N/A   Clear
4:15 PM 91.4 °F 92.1 °F 62.6 °F 38% 29.83 in 10.0 mi South 27.6 mph 35.7 mph N/A   Clear
4:35 PM 91.4 °F 92.1 °F 62.6 °F 38% 29.83 in 10.0 mi SSW 26.5 mph 33.4 mph N/A   Clear
4:55 PM 91.4 °F 92.1 °F 62.6 °F 38% 29.83 in 10.0 mi SSW 27.6 mph 36.8 mph N/A   Clear
5:15 PM 91.4 °F 92.1 °F 62.6 °F 38% 29.82 in 10.0 mi SSW 27.6 mph 32.2 mph N/A   Clear
5:35 PM 91.4 °F 91.4 °F 60.8 °F 36% 29.81 in 10.0 mi SSW 24.2 mph 33.4 mph N/A   Clear
5:55 PM 89.6 °F 89.5 °F 60.8 °F 38% 29.81 in 10.0 mi South 24.2 mph 36.8 mph N/A   Clear
6:15 PM 89.6 °F 89.5 °F 60.8 °F 38% 29.81 in 10.0 mi South 25.3 mph 33.4 mph N/A   Clear
6:35 PM 87.8 °F 87.6 °F 60.8 °F 40% 29.81 in 10.0 mi South 26.5 mph 34.5 mph N/A   Clear
6:55 PM 86.0 °F 86.1 °F 60.8 °F 43% 29.81 in 10.0 mi South 25.3 mph 28.8 mph N/A   Clear
7:15 PM 84.2 °F 83.8 °F 59.0 °F 42% 29.82 in 10.0 mi South 21.9 mph 28.8 mph N/A   Clear
7:35 PM 84.2 °F 83.8 °F 59.0 °F 42% 29.82 in 10.0 mi South 24.2 mph 27.6 mph N/A   Clear
7:55 PM 82.4 °F 82.5 °F 59.0 °F 45% 29.82 in 10.0 mi South 23.0 mph 29.9 mph N/A   Clear
8:15 PM 82.4 °F 82.5 °F 59.0 °F 45% 29.82 in 10.0 mi South 20.7 mph 25.3 mph N/A   Clear
8:35 PM 80.6 °F 80.8 °F 57.2 °F 45% 29.83 in 10.0 mi South 19.6 mph - N/A   Clear
8:55 PM 80.6 °F 80.8 °F 57.2 °F 45% 29.84 in 10.0 mi South 17.3 mph 24.2 mph N/A   Clear
9:15 PM 78.8 °F - 57.2 °F 47% 29.85 in 10.0 mi South 19.6 mph 25.3 mph N/A   Clear
9:35 PM 78.8 °F - 57.2 °F 47% 29.86 in 10.0 mi South 18.4 mph 24.2 mph N/A   Clear
9:55 PM 78.8 °F - 57.2 °F 47% 29.87 in 10.0 mi South 19.6 mph 24.2 mph N/A   Clear
10:15 PM 78.8 °F - 57.2 °F 47% 29.87 in 10.0 mi South 20.7 mph - N/A   Clear
10:35 PM 77.0 °F - 57.2 °F 50% 29.88 in 10.0 mi South 18.4 mph - N/A   Clear
10:55 PM 77.0 °F - 57.2 °F 50% 29.88 in 10.0 mi South 18.4 mph 24.2 mph N/A   Clear
11:15 PM 77.0 °F - 57.2 °F 50% 29.88 in 10.0 mi South 20.7 mph 25.3 mph N/A   Clear
11:35 PM 75.2 °F - 57.2 °F 53% 29.88 in 10.0 mi South 20.7 mph 26.5 mph N/A   Clear
11:55 PM 75.2 °F - 57.2 °F 53% 29.89 in 10.0 mi South 20.7 mph - N/A   Clear